Regional Weather Roundup
Issued by NWS

Home | Current Version | Previous Version | Text Only | Print | Product List | Glossary On
Versions: 1 2 3 4 5 6 7 8 9 10 11 12 13 14 15 16 17 18 19 20 21 22 23 24 25 26 27 28 29 30 31 32 33 34 35 36 37 38 39 40 41 42 43 44 45 46 47 48
000
ASUS45 KBOU 270607
RWRCO

WEATHER ROUNDUP FOR COLORADO
NATIONAL WEATHER SERVICE DENVER/BOULDER CO
1100 PM MST MON JAN 26 2015

NOTE: "FAIR" INDICATES FEW OR NO CLOUDS BELOW 12000 FEET WITH NO
SIGNIFICANT WEATHER AND/OR OBSTRUCTIONS TO VISIBILITY.

COZ001>005-013-030-031-270700-
...NORTHWEST COLORADO...

CITY           SKY/WX    TMP DP  RH WIND       PRES   REMARKS
CRAIG          PTCLDY    18  15  88 CALM      30.33S
HAYDEN         PTCLDY    32  21  64 E15       30.32S WCI  22
MEEKER         CLEAR     22  18  85 CALM      30.35R
MOUNT WERNER   NOT AVBL
STEAMBOAT SPGS PTCLDY    26  22  85 CALM      30.36R
WALDEN         PTCLDY    23  18  80 E6        30.40R WCI  16
$$

COZ006>008-011-270700-
...WEST CENTRAL VALLEYS...

CITY           SKY/WX    TMP DP  RH WIND       PRES   REMARKS
GRAND JUNCTION PTCLDY    32  25  75 E7        30.32R WCI  26
MONTROSE       CLEAR     30  22  72 S6        30.36R WCI  24
EAGLE          CLEAR     27  23  86 CALM      30.43R
RIFLE          PTCLDY    31  25  78 E3        30.35R
DELTA          CLEAR     34  24  67 CALM      30.35R
NUCLA          CLEAR     36  27  69 E3        30.37S
$$

COZ017>023-064>068-270700-
...SOUTHWEST COLORADO...

CITY           SKY/WX    TMP DP  RH WIND       PRES   REMARKS
DURANGO        MOCLDY    34  25  69 N5        30.39S WCI  30
CORTEZ         CLEAR     31  24  75 NE3       30.35R
PAGOSA SPRINGS MOCLDY    31  22  71 CALM      30.43S
TELLURIDE      PTCLDY    41  18  40 CALM      30.45S
WOLF CREEK PAS NOT AVBL
$$

COZ009-010-012-014-032>034-037-058>063-270700-
...CENTRAL COLORADO...

CITY           SKY/WX    TMP DP  RH WIND       PRES   REMARKS
ASPEN          PTCLDY    26  17  68 S7        30.38R WCI  18
BUENA VISTA    PTCLDY    31  21  65 NW3       30.42R
COPPER MTN     PTCLDY    37  10  32 S18       30.56R
BERTHOUD PASS  FAIR      32  28  86 SW8       30.59R WCI  25
COTTONWOOD PAS PTCLDY    45   7  21 W5        30.47S
GUNNISON       PTCLDY     9   7  92 CALM      30.50R
KREMMLING      PTCLDY    12   9  85 E3        30.47R
LEADVILLE      PTCLDY    25  12  58 CALM      30.47R
MONARCH PASS   PTCLDY    34  10  37 S20       30.66S WCI  22
SALIDA         PTCLDY    38  21  51 NW7       30.48R
SUNLIGHT       PTCLDY    37  19  48 CALM      30.51R
WILKERSON PASS CLEAR     34  14  44 SW8       30.55S WCI  27
$$

COZ069>075-270700-
...SAN LUIS VALLEY/SANGRE DE CRISTO MOUNTAINS...

CITY           SKY/WX    TMP DP  RH WIND       PRES   REMARKS
ALAMOSA        MOCLDY    20  16  84 NW3       30.43R
LA VETA PASS   NOT AVBL
SAGUACHE       PTCLDY    27  19  74 NW15      30.44R WCI  15
$$

COZ035-036-038>040-270700-
...NORTHERN COLORADO FRONT RANGE...

CITY           SKY/WX    TMP DP  RH WIND       PRES   REMARKS
DENVER INTL AP PTCLDY    50  26  39 SW18      30.21R
DMNS CITY PARK   N/A     48  22  36 SW8       30.21S
AURORA         CLEAR     46  26  45 S15       30.23S
FRONT RANGE AP NOT AVBL
ERIE MUNI ARPT CLEAR     35  25  67 CALM      30.20R
BOULDER MUN AP CLEAR     55  19  24 SW10      30.19S
CENTENNIAL     CLEAR     42  25  50 S9        30.24S
BROOMFIELD     CLEAR     45  23  42 SW7       30.22S
FORT COLLINS   CLEAR     41  23  48 CALM      30.20S
LONGMONT       CLEAR     41  24  51 NW3       30.21S
$$

COZ041-046-047-076>085-087-088-270700-
...PIKES PEAK/PALMER DIVIDE AND SOUTHERN FOOTHILLS...

CITY           SKY/WX    TMP DP  RH WIND       PRES   REMARKS
COLO. SPRINGS  CLEAR     38  25  59 NE8       30.30R
A. F. ACADEMY  CLEAR     33  24  71 N10       30.31R WCI  24
ELLICOTT       CLEAR    N/A N/A N/A CALM      30.29R
FALCON         CLEAR     36  24  60 W3        30.34R
FORT CARSON    CLEAR     42  25  51 NW14      30.26S
LIMON          CLEAR     28  23  81 N7        30.24S WCI  21
MONUMENT HILL  PTCLDY    41  25  52 S12       30.31R
TRINIDAD       PTCLDY    43  26  51 SW18      30.30R
$$

COZ042>045-048>051-090-091-270700-
...NORTHEAST COLORADO...

CITY           SKY/WX    TMP DP  RH WIND       PRES   REMARKS
GREELEY ARPT   CLEAR     32  21  64 W7        30.17S WCI  26
AKRON          CLEAR     46  28  49 SW13      30.16S
BURLINGTON     CLEAR     39  29  67 SW10      30.17S
WRAY           CLEAR     36  31  82 W7        30.14S
STERLING       CLEAR     36  32  87 SW3       30.14S
HOLYOKE        CLEAR     37  32  81 W10       30.12S
FORT MORGAN    CLEAR     35  28  74 W8        30.18R WCI  29
$$

COZ086-089-092>099-270700-
...SOUTHEAST COLORADO...

CITY           SKY/WX    TMP DP  RH WIND       PRES   REMARKS
PUEBLO         CLEAR     33  27  78 CALM      30.24R
LA JUNTA       PTCLDY    45  33  63 W13       30.21R
LAMAR          CLEAR     44  34  67 SW12      30.18R
SPRINGFIELD      N/A     40  30  67 SW10      30.23R
$$


USA.gov is the U.S. government's official web portal to all federal, state and local government web resources and services.